Hourly Data Report for October 21, 2016

All times are specified in Local Standard Time (LST). Add 1 hour to adjust for Daylight Saving Time where and when it is observed.

GRISE FIORD CLIMATE
NUNAVUT

76°25'22.040" N
82°54'08.020" W
44.50 m
2402351
71971
NGC

Download Data

Hourly Data (October 2016)
Hourly Data Report for October 21, 2016
Temp Definition
°C
Dew Point Temp Definition
°C
Rel Hum Definition
%
Wind Dir Definition
10's deg

Wind Spd Definition
km/h
Visibility Definition
km
Stn Press Definition
kPa
Hmdx Definition


Wind Chill Definition


Weather Definition


TIME
00:00 -19.2 -24.3 64 8 6   100.64   -24 LegendNANA
01:00 -18.9 -22.6 73 10 4   100.71   -22 LegendNANA
02:00 -17.0 -21.9 66 6 9   100.76   -23 LegendNANA
03:00 -18.5 -22.3 72 12 5   100.84   -23 LegendNANA
04:00 -19.0 -22.4 75 13 8   100.93   -25 LegendNANA
05:00 -19.6 -22.7 77 10 6   100.99   -25 LegendNANA
06:00 -18.7 -22.0 76 10 6   101.02   -24 LegendNANA
07:00 -16.5 -20.9 68 6 8   101.08   -22 LegendNANA
08:00 -16.8 -20.6 72 6 6   101.10   -21 LegendNANA
09:00 -14.5 -17.6 77 4 14   101.12   -22 LegendNANA
10:00 -14.7 -17.5 79 7 8   101.16   -20 LegendNANA
11:00 -14.1 -16.1 85 4 12   101.23   -21 LegendNANA
12:00 -14.2 -16.2 85 5 13   101.27   -21 LegendNANA
13:00 -14.3 -15.9 88 4 13   101.33   -21 LegendNANA
14:00 -14.3 -15.7 89 5 10   101.37   -20 LegendNANA
15:00 -14.5 -16.0 89 9 3   101.43   -17 LegendNANA
16:00 -14.5 -15.8 90 9 3   101.46   -17 LegendNANA
17:00 -14.8 -15.9 92 5 11   101.49   -21 LegendNANA
18:00 -15.5 -16.6 91 5 22   101.51   -25 LegendNANA
19:00 -15.7 -16.8 91 5 22   101.53   -25 LegendNANA
20:00 -15.5 -16.6 91 5 21   101.56   -25 LegendNANA
21:00 -16.3 -17.8 88 4 17   101.56   -25 LegendNANA
22:00 -15.8 -17.3 88 5 5   101.59   -20 LegendNANA
23:00 -15.7 -17.1 89 5 6   101.62   -20 LegendNANA

Notes on Data Quality.

Legend

  • E = Estimated
  • M = Missing
  • NA = Not Available
  • ‡ = Partner data that is not subject to review by the National Climate Archives
Date modified: